Stations météo

réclame
Mon MeteoGroup
Schaffen, Belgique (6465): Température de l'air & dewpoint: 17.09.2017 23:00:00 - 23.09.2017 23:00:00 (CEST)Schaffen, Belgique (6465): Vitesse du vent & gusts: 17.09.2017 23:00:00 - 23.09.2017 23:00:00 (CEST)Schaffen, Belgique (6465): Direction du vent: 17.09.2017 23:00:00 - 23.09.2017 23:00:00 (CEST)Schaffen, Belgique (6465): reduced air pressure: 17.09.2017 23:00:00 - 23.09.2017 23:00:00 (CEST)Schaffen, Belgique (6465): visibility: 17.09.2017 23:00:00 - 23.09.2017 23:00:00 (CEST)
Date & Time tt [°C] td [°C] ff [km/h] ff [knt] fx [km/h] fx [knt] dd ppp [hPa] vv [km]
23.09.2017 23:00:00 11,5 9,0 4 2 - - N 1023,3 19
23.09.2017 22:00:00 11,5 9,2 4 2 7 4 N 1023,3 20
23.09.2017 21:00:00 11,6 9,2 4 2 7 4 N 1023,2 20
23.09.2017 20:00:00 13,6 8,2 4 2 - - N 1023,2 20
23.09.2017 19:00:00 15,3 8,1 4 2 11 6 N 1023,2 20
23.09.2017 18:00:00 17,0 7,7 4 2 14 8 N 1023,0 20
23.09.2017 17:00:00 16,8 8,4 7 4 - - NE 1023,2 20
23.09.2017 16:00:00 16,7 8,1 4 2 14 8 N 1023,7 20
23.09.2017 15:00:00 16,2 8,7 7 4 18 10 NE 1024,4 20
23.09.2017 14:00:00 14,9 10,6 4 2 - - N 1024,9 20
23.09.2017 13:00:00 12,5 10,7 4 2 11 6 - 1025,2 7
23.09.2017 12:00:00 11,6 11,6 4 2 7 4 N 1025,5 3,5
23.09.2017 11:00:00 10,8 10,8 4 2 - - N 1025,5 0,2
23.09.2017 10:00:00 8,6 8,6 4 2 7 4 - 1025,2 0,1
23.09.2017 09:00:00 6,3 6,3 4 2 7 4 N 1025,2 0,2
23.09.2017 08:00:00 5,3 5,3 4 2 - - N 1025,0 0,1
23.09.2017 07:00:00 5,4 5,4 4 2 4 2 N 1024,7 -
23.09.2017 06:00:00 5,8 5,6 0 0 4 2 N 1024,7 -
23.09.2017 05:00:00 6,9 6,7 4 2 - - N 1024,5 0,1
23.09.2017 04:00:00 8,2 8,0 4 2 7 4 N 1024,7 0,1
23.09.2017 03:00:00 7,6 7,5 4 2 7 4 N 1024,5 0,1
23.09.2017 02:00:00 10,2 9,6 4 2 - - N 1024,4 4,0
23.09.2017 01:00:00 10,8 9,8 4 2 7 4 N 1024,0 9
23.09.2017 00:00:00 11,1 10,3 4 2 11 6 N 1024,0 8
22.09.2017 23:00:00 12,0 10,5 7 4 - - WNW 1023,8 20
22.09.2017 22:00:00 12,6 10,6 7 4 11 6 NW 1023,6 20
22.09.2017 21:00:00 14,0 11,4 7 4 18 10 NNW 1023,1 20
22.09.2017 20:00:00 15,1 12,4 8 4 - - NNW 1022,3 10
22.09.2017 19:00:00 16,7 12,6 4 2 11 6 N 1021,7 20
22.09.2017 18:00:00 17,2 11,9 4 2 14 8 N 1021,2 20
22.09.2017 17:00:00 17,6 11,6 7 4 - - WSW 1021,2 20
22.09.2017 16:00:00 17,2 12,4 11 6 18 10 WSW 1021,3 20
22.09.2017 15:00:00 17,6 13,4 7 4 18 10 W 1021,2 20
22.09.2017 14:00:00 17,7 13,0 7 4 - - W 1021,0 15
22.09.2017 13:00:00 18,3 12,4 4 2 7 4 N 1020,7 15
22.09.2017 12:00:00 16,3 11,8 4 2 7 4 N 1020,8 15
22.09.2017 11:00:00 15,0 11,8 4 2 - - N 1020,7 10
22.09.2017 10:00:00 11,2 10,2 4 2 7 4 N 1020,7 10
22.09.2017 09:00:00 9,5 9,1 7 4 7 4 SSE 1020,3 8
22.09.2017 08:00:00 7,6 7,6 7 4 - - SSE 1020,2 7
22.09.2017 07:00:00 7,7 7,5 7 4 7 4 S 1019,7 6
22.09.2017 06:00:00 8,1 7,9 7 4 7 4 S 1019,7 7
22.09.2017 05:00:00 8,6 8,3 7 4 - - SSE 1019,6 3,7
22.09.2017 04:00:00 8,9 8,6 4 2 7 4 N 1019,8 5
22.09.2017 03:00:00 9,6 9,2 7 4 7 4 S 1020,0 5
22.09.2017 02:00:00 10,0 9,5 5 3 - - SSE 1020,0 3,1
22.09.2017 01:00:00 10,5 9,9 7 4 7 4 SSE 1019,7 10
22.09.2017 00:00:00 11,6 10,5 4 2 4 2 N 1019,7 19
21.09.2017 23:00:00 13,0 10,6 4 2 - - N 1019,7 20
21.09.2017 22:00:00 14,0 9,9 4 2 4 2 N 1019,7 20
21.09.2017 21:00:00 14,8 9,4 4 2 4 2 N 1019,6 20
21.09.2017 20:00:00 15,4 9,7 4 2 - - - 1019,1 1,3
21.09.2017 19:00:00 17,1 9,6 4 2 11 6 N 1018,7 20
21.09.2017 18:00:00 18,2 8,6 7 4 14 8 SSE 1018,7 20
21.09.2017 17:00:00 18,7 8,0 7 4 - - SSE 1018,8 20
21.09.2017 16:00:00 18,5 8,1 11 6 18 10 S 1019,1 20
21.09.2017 15:00:00 18,3 8,9 7 4 18 10 S 1019,6 20
21.09.2017 14:00:00 17,5 8,9 7 4 - - S 1020,0 20
21.09.2017 13:00:00 16,8 8,5 11 6 18 10 S 1020,5 20
21.09.2017 12:00:00 16,2 9,1 11 6 18 10 S 1020,7 20
21.09.2017 11:00:00 14,4 9,0 11 6 - - SSE 1021,1 20
21.09.2017 10:00:00 12,0 9,0 11 6 14 8 SSE 1021,0 18
21.09.2017 09:00:00 9,7 8,1 7 4 11 6 SSE 1020,8 17
21.09.2017 08:00:00 7,9 7,4 7 4 - - S 1020,7 12
21.09.2017 07:00:00 7,6 7,1 8 4 11 6 SSE 1020,8 10
21.09.2017 06:00:00 8,0 7,4 4 2 11 6 N 1020,7 12
21.09.2017 05:00:00 8,6 7,9 7 4 - - SSE 1020,7 12
21.09.2017 04:00:00 9,1 8,4 7 4 11 6 S 1021,0 14
21.09.2017 03:00:00 9,9 9,0 7 4 11 6 S 1021,1 15
21.09.2017 02:00:00 10,5 9,4 7 4 - - S 1021,2 18
21.09.2017 01:00:00 10,0 9,2 7 4 7 4 N 1021,2 14
21.09.2017 00:00:00 10,0 9,1 7 4 11 6 S 1021,1 15
20.09.2017 23:00:00 10,5 9,2 8 4 - - S 1021,2 10
20.09.2017 22:00:00 10,8 9,4 4 2 7 4 N 1021,0 20
20.09.2017 21:00:00 13,5 9,3 4 2 11 6 N 1021,0 20
20.09.2017 20:00:00 14,6 9,1 7 4 - - SSW 1020,7 20
20.09.2017 19:00:00 - - - - - - - - -
20.09.2017 18:00:00 16,8 9,3 4 2 18 10 N 1020,3 20
20.09.2017 17:00:00 17,9 8,5 7 4 - - W 1020,6 20
20.09.2017 16:00:00 17,0 9,2 11 6 18 10 SSW 1020,7 20
20.09.2017 15:00:00 17,4 8,6 11 6 25 14 WSW 1021,0 20
20.09.2017 14:00:00 16,2 8,8 11 6 - - WSW 1021,3 20
20.09.2017 13:00:00 15,4 8,7 11 6 22 12 W 1021,7 20
20.09.2017 12:00:00 14,6 9,5 11 6 22 12 WSW 1021,8 20
20.09.2017 11:00:00 13,6 9,4 11 6 - - SW 1021,8 18
20.09.2017 10:00:00 12,5 9,9 11 6 22 12 WSW 1021,8 10
20.09.2017 09:00:00 10,8 9,6 7 4 14 8 SW 1021,7 5
20.09.2017 08:00:00 9,6 9,2 7 4 - - SSW 1021,6 4,5
20.09.2017 07:00:00 10,1 9,7 4 2 11 6 N 1021,6 7
20.09.2017 06:00:00 10,3 10,0 7 4 11 6 SW 1021,5 7
20.09.2017 05:00:00 10,8 10,4 7 4 - - WSW 1021,5 3,6
20.09.2017 04:00:00 11,3 10,9 7 4 11 6 WSW 1021,5 3,4
20.09.2017 03:00:00 11,3 10,8 7 4 14 8 SW 1021,5 5
20.09.2017 02:00:00 11,8 10,8 7 4 - - W 1021,8 11
20.09.2017 01:00:00 11,6 10,3 7 4 14 8 W 1021,7 10
20.09.2017 00:00:00 12,2 10,3 11 6 14 8 W 1021,8 20
19.09.2017 23:00:00 12,5 10,5 11 6 - - W 1021,8 20
19.09.2017 22:00:00 12,3 9,8 11 6 14 8 WNW 1021,6 20
19.09.2017 21:00:00 12,3 9,6 7 4 11 6 WNW 1021,2 20
19.09.2017 20:00:00 13,1 10,7 7 4 - - W 1020,6 20
19.09.2017 19:00:00 15,1 9,6 4 2 11 6 N 1020,2 20
19.09.2017 18:00:00 15,8 9,5 4 2 14 8 N 1019,7 20
19.09.2017 17:00:00 16,6 8,8 7 4 - - N 1019,5 15
19.09.2017 16:00:00 16,9 8,5 11 6 22 12 NW 1019,3 15
19.09.2017 15:00:00 16,1 10,1 9 5 18 10 NW 1019,5 10
19.09.2017 14:00:00 15,1 9,9 11 6 - - NW 1019,5 15
19.09.2017 13:00:00 13,1 10,1 4 2 14 8 N 1019,7 5
19.09.2017 12:00:00 11,4 10,9 4 2 14 8 N 1019,2 2,5
19.09.2017 11:00:00 11,3 10,8 11 6 - - NW 1018,7 6
19.09.2017 10:00:00 11,2 10,4 7 4 14 8 NW 1018,0 10
19.09.2017 09:00:00 10,6 9,9 11 6 18 10 W 1017,2 10
19.09.2017 08:00:00 9,8 9,4 11 6 - - W 1016,8 10
19.09.2017 07:00:00 10,0 9,5 11 6 22 12 W 1016,5 10
19.09.2017 06:00:00 10,3 9,8 11 6 18 10 W 1016,2 10
19.09.2017 05:00:00 9,9 9,6 11 6 - - SW 1016,2 11
19.09.2017 04:00:00 9,3 9,2 8 4 11 6 SW 1016,1 4,9
19.09.2017 03:00:00 9,3 9,0 7 4 11 6 SSW 1016,2 4,9
19.09.2017 02:00:00 9,6 9,3 7 4 - - SW 1016,2 4,4
19.09.2017 01:00:00 9,9 9,6 7 4 14 8 SW 1016,1 5
19.09.2017 00:00:00 10,3 10,0 9 5 14 8 SW 1016,1 9
18.09.2017 23:00:00 10,6 10,1 7 4 - - SW 1016,1 12
18.09.2017 22:00:00 10,8 10,3 7 4 14 8 SW 1015,8 13
18.09.2017 21:00:00 11,3 10,8 7 4 11 6 SW 1015,8 12
18.09.2017 20:00:00 11,8 10,9 7 4 - - SSW 1015,3 20
18.09.2017 19:00:00 12,6 11,5 7 4 14 8 SSW 1015,0 20
18.09.2017 18:00:00 13,0 11,5 4 2 14 8 N 1014,7 20
18.09.2017 17:00:00 10,0 9,3 15 8 - - NW 1014,7 4,9
18.09.2017 16:00:00 13,4 10,8 7 4 18 10 SW 1014,5 20
18.09.2017 15:00:00 10,1 9,5 11 6 40 21 WSW 1014,8 10
18.09.2017 14:00:00 15,3 8,8 18 10 - - SW 1014,1 20
18.09.2017 13:00:00 15,5 10,1 11 6 29 16 SW 1014,2 20
18.09.2017 12:00:00 15,3 10,4 11 6 25 14 SW 1014,5 18
18.09.2017 11:00:00 12,9 10,2 7 4 - - SW 1014,6 18
18.09.2017 10:00:00 11,5 9,8 13 7 22 12 WSW 1014,7 10
18.09.2017 09:00:00 10,5 9,8 7 4 18 10 SW 1014,5 8
18.09.2017 08:00:00 9,3 8,7 7 4 - - SSW 1014,1 5
18.09.2017 07:00:00 8,6 8,1 8 4 11 6 SSW 1013,8 5
18.09.2017 06:00:00 8,7 8,3 8 4 14 8 SSW 1013,7 6
18.09.2017 05:00:00 9,1 8,4 7 4 - - SW 1013,7 7
18.09.2017 04:00:00 8,9 8,3 8 4 11 6 SSW 1013,8 10
18.09.2017 03:00:00 9,8 9,1 5 3 14 8 SSW 1013,8 10
18.09.2017 02:00:00 10,1 9,3 7 4 - - SW 1014,0 12
18.09.2017 01:00:00 10,0 9,3 4 2 11 6 N 1014,0 13
18.09.2017 00:00:00 10,6 8,7 7 4 11 6 SW 1014,2 20
17.09.2017 23:00:00 11,9 8,1 4 2 - - N 1013,8 16

tt = Température de l'air
td = dewpoint
ff = Vitesse du vent
fx = gusts
dd = Direction du vent
ppp = reduced air pressure
vv = visibility

stations d'obs. à proximité